Wind_Speed
20 17 15 14 11 11 11 6 1 8 6 9 13 13 15 16 19 24 22 22 29 29 18 10 7 7 6 3 4 7 8 12 16 17 15 14 10 8 6 4 3 2 3 5
22 17 22 20 13 13 14 8 2 4 6 9 8 10 12 16 18 21 23 15 23 27 19 8 8 9 5 4 6 7 7 9 11 14 12 10 10 9 7 9 8 7 4 4
21 18 33 26 17 22 18 8 3 1 5 8 12 12 14 16 20 27 24 18 15 17 21 19 13 9 10 10 4 3 5 8 8 8 9 10 8 7 5 8 12 10 12 10
21 31 32 30 20 23 17 8 4 6 7 6 14 16 18 20 21 28 25 15 12 15 13 22 12 13 9 14 8 2 2 1 2 5 6 7 6 6 6 6 8 9 10 10
22 31 31 31 21 23 17 11 9 8 17 8 14 20 23 24 23 25 25 14 18 15 8 11 14 11 15 20 17 9 8 6 8 9 7 7 9 7 6 6 8 10 11 11
27 34 32 31 30 28 23 19 18 9 15 18 17 20 17 21 21 26 24 18 18 22 32 17 10 17 17 21 23 15 10 4 5 7 8 7 7 11 12 13 14 13 14 15
30 36 33 32 31 29 25 17 16 14 15 17 25 23 20 21 21 24 24 23 26 25 26 29 38 35 16 27 26 24 15 11 6 7 7 12 13 13 15 15 17 18 18 18
31 34 31 33 33 32 30 22 15 17 13 10 19 23 18 21 19 15 20 28 30 29 31 32 41 20 14 27 29 32 30 19 10 8 11 11 14 19 21 22 20 19 21 21
29 29 33 37 38 37 32 28 18 15 21 19 21 19 18 15 17 15 17 28 25 28 37 41 20 12 17 20 14 37 30 15 5 7 10 17 19 20 27 24 23 25 24 25
28 27 31 42 43 39 35 30 25 21 22 22 21 24 20 17 13 15 17 26 32 35 25 14 5 11 13 11 16 31 26 17 11 13 13 19 24 27 26 28 29 30 29 28
29 30 32 39 45 37 37 37 26 23 24 23 22 23 20 15 15 16 23 31 27 25 15 15 15 9 11 13 13 13 12 12 11 12 15 19 23 25 28 29 29 29 30 30
26 29 34 38 42 39 40 35 32 31 27 21 23 26 22 16 17 19 27 24 12 12 13 13 13 13 13 11 12 15 17 19 18 19 21 24 27 28 30 29 28 27 27 28
25 31 33 40 44 37 36 36 34 29 29 31 28 28 18 19 20 23 20 15 16 13 15 14 13 12 14 12 14 15 19 19 20 24 25 25 27 29 29 30 29 29 28 27
14 24 30 41 43 37 36 33 24 30 26 24 23 19 21 22 19 18 20 15 23 20 18 16 15 15 18 21 23 23 23 24 25 26 27 30 31 31 30 30 31 32 31 30
21 20 29 34 37 37 34 33 28 24 24 21 18 19 25 25 19 15 14 22 25 18 18 17 18 19 20 22 24 24 25 26 27 29 30 31 32 32 31 31 32 32 32 32
21 22 27 35 38 34 31 34 36 30 27 29 26 24 26 25 26 23 20 25 19 17 17 19 21 23 24 27 28 29 29 29 30 32 33 32 32 32 31 31 31 31 32 32
24 21 24 34 35 35 37 35 34 28 31 28 27 27 27 28 29 28 26 25 22 19 19 20 23 25 27 29 29 29 29 29 31 32 32 32 32 32 32 32 32 32 32 32
29 25 22 28 33 40 40 38 32 33 33 31 31 32 25 24 23 23 27 28 20 20 22 24 24 25 27 29 28 29 29 31 33 34 33 33 33 33 33 32 33 34 36 36
33 29 30 33 38 42 44 38 32 29 26 34 34 34 28 19 15 23 23 21 21 22 24 25 25 27 29 28 29 31 33 34 34 34 33 33 33 33 34 35 36 37 37 38
37 36 25 28 35 43 42 34 29 26 25 22 19 15 13 15 20 18 23 20 23 24 26 26 27 28 29 29 31 33 32 31 31 32 32 32 33 35 36 37 37 37 37 37
40 38 28 26 30 35 44 32 24 30 22 17 4 9 16 20 24 21 17 21 25 26 27 28 30 32 31 33 34 34 33 32 32 31 32 34 35 36 36 36 35 35 36 36
43 44 34 29 29 35 37 29 23 14 17 14 11 15 20 21 20 19 22 25 26 29 30 32 33 34 33 35 35 33 31 31 31 33 35 35 35 36 36 36 35 35 35 36
38 38 35 31 31 36 37 21 13 16 12 13 14 12 15 24 24 25 25 25 28 33 33 34 35 34 36 35 33 30 30 31 33 35 36 35 36 35 34 34 34 35 37 39
39 32 29 27 23 29 34 36 32 20 16 15 17 22 26 27 26 29 29 27 32 35 34 35 35 36 35 31 30 29 30 33 35 36 36 35 34 32 32 33 36 38 41 41
37 34 31 28 27 30 40 36 31 25 23 18 22 27 32 37 32 31 31 31 33 34 33 33 34 32 28 28 28 30 33 35 35 35 34 33 32 32 35 37 40 40 38 39
36 34 33 34 30 30 37 43 28 26 24 21 25 32 31 29 30 30 31 32 34 35 35 34 29 25 25 26 28 32 34 34 33 33 31 30 31 34 37 39 37 36 37 39
Wind_Direction
219 217 201 202 198 161 164 187 350 10 350 36 20 22 12 13 0 359 341 336 17 21 345 8 29 63 61 47 39 33 52 59 74 76 69 68 67 52 17 81 107 257 86 62
223 220 195 206 211 186 175 179 0 56 317 341 351 356 342 342 339 331 339 4 354 26 11 310 317 340 0 2 30 44 54 58 63 62 61 69 70 58 29 0 319 15 5 33
226 204 207 210 212 186 186 177 86 325 278 297 313 326 326 327 329 319 326 333 347 358 1 349 291 311 328 329 329 98 79 74 64 62 60 63 60 61 33 6 7 3 3 4
214 198 212 217 204 194 189 183 186 226 267 305 308 310 313 309 316 317 316 317 328 359 357 321 8 286 301 293 285 184 155 252 46 356 16 19 29 42 22 351 336 326 332 339
216 214 212 211 198 192 173 196 190 221 279 267 279 294 310 305 303 328 325 305 331 308 282 267 288 272 296 288 263 239 216 237 245 255 313 300 303 313 313 313 316 312 308 303
214 218 217 213 213 209 195 200 205 227 258 267 272 289 298 288 301 333 332 320 308 316 311 273 284 296 287 284 267 256 280 210 276 314 314 326 300 293 294 294 294 293 293 296
213 216 225 219 216 212 202 208 227 239 241 263 254 265 277 298 320 323 324 321 328 317 316 327 330 303 265 267 249 243 202 213 259 264 313 315 324 321 315 307 301 292 284 281
215 217 223 218 217 215 203 213 206 263 267 266 251 259 289 309 320 332 330 343 341 336 322 322 327 310 257 247 236 244 215 212 226 289 309 310 323 325 314 300 292 291 289 287
223 217 222 219 214 215 208 213 226 242 250 249 249 265 281 300 338 353 348 336 330 320 319 314 312 297 313 8 289 246 246 283 112 37 324 318 324 318 321 311 303 295 289 284
225 217 215 219 219 215 215 221 226 231 251 261 252 258 280 311 345 343 342 338 340 338 356 323 168 297 350 348 344 14 225 8 23 353 334 321 318 315 311 308 305 302 300 291
221 217 209 212 219 213 217 221 228 235 245 255 264 258 271 307 328 337 332 328 329 320 20 26 46 22 18 1 7 356 338 342 344 328 322 308 305 305 303 302 300 298 296 294
222 225 209 210 209 212 219 224 225 234 242 252 261 261 268 301 321 329 330 321 343 360 353 4 8 357 347 345 336 325 325 334 332 314 306 302 303 304 305 300 298 297 294 292
213 216 206 209 206 215 224 226 231 239 241 257 250 259 269 294 306 322 316 338 331 324 332 334 339 331 325 328 309 306 324 323 305 299 297 304 306 307 308 308 307 304 298 294
191 215 211 212 207 212 227 236 240 236 239 239 253 268 281 289 312 323 296 305 329 320 328 323 315 321 325 331 335 329 323 313 306 303 303 306 311 313 313 312 310 306 303 300
196 203 209 198 201 217 226 232 231 225 236 242 252 276 282 283 293 300 277 294 315 308 319 314 313 316 324 330 330 319 309 306 308 308 309 313 316 313 311 310 307 305 303 298
199 212 207 207 208 220 225 227 233 230 236 241 247 261 272 272 284 277 277 302 303 302 310 310 313 318 321 324 320 317 313 314 314 312 314 311 309 311 310 307 306 304 302 300
200 219 219 221 224 229 226 228 238 235 238 244 251 254 261 270 272 285 286 301 302 292 299 311 313 316 317 315 317 311 309 311 309 308 309 310 310 309 308 309 309 308 306 305
204 201 225 228 230 230 230 231 242 249 258 239 243 250 265 279 293 298 288 311 304 303 303 302 304 306 309 315 313 308 310 312 313 313 311 309 308 308 310 311 310 309 307 304
205 206 222 233 233 233 235 238 245 254 254 234 244 265 267 277 296 300 306 304 301 300 295 296 306 311 315 314 313 316 316 312 311 310 309 309 311 313 311 310 308 305 303 301
218 222 223 233 238 238 238 238 245 245 239 249 263 258 254 288 299 298 298 299 298 295 297 303 308 313 313 312 315 317 316 314 313 314 314 314 315 313 312 311 308 306 303 300
223 227 227 222 235 244 240 243 235 236 245 233 208 273 284 291 303 303 303 297 299 303 304 310 313 316 316 316 317 316 316 317 316 316 315 316 314 313 312 311 308 305 303 303
227 224 227 222 238 231 230 235 241 247 227 201 232 254 290 292 299 303 303 308 311 312 313 316 318 315 314 316 315 317 317 316 315 316 317 316 314 313 312 311 310 310 309 308
214 218 224 228 241 232 224 216 211 211 216 226 243 278 273 305 307 300 304 302 306 312 316 318 316 313 315 314 315 316 315 315 316 316 315 314 314 313 312 312 312 311 310 308
217 221 220 230 237 227 225 234 238 241 235 261 283 287 293 294 299 302 300 302 306 312 317 315 310 310 311 312 313 313 314 315 316 316 315 314 313 313 314 314 313 312 312 313
220 219 220 228 237 229 229 238 238 246 259 267 276 289 298 296 294 299 305 305 306 309 307 304 304 306 309 311 311 313 316 317 316 315 314 314 316 317 317 316 317 319 320 321
218 224 224 229 248 230 233 235 243 244 252 261 277 287 280 288 296 303 307 310 312 307 301 300 300 304 306 308 312 315 316 316 316 313 315 316 317 317 318 320 321 322 325 325
Height
5914 5918 5920 5922 5922 5922 5921 5922 5921 5920 5924 5926 5925 5926 5928 5927 5926 5925 5921 5920 5919 5915 5910 5908 5907 5903 5902 5901 5900 5897 5895 5894 5890 5889 5889 5888 5889 5889 5887 5886 5884 5881 5883 5882
5912 5916 5919 5919 5921 5921 5921 5921 5922 5920 5924 5924 5924 5926 5928 5927 5926 5924 5922 5919 5919 5917 5910 5908 5908 5907 5905 5905 5903 5902 5899 5898 5894 5890 5891 5893 5892 5889 5887 5886 5882 5880 5881 5879
5910 5916 5914 5916 5919 5921 5921 5921 5921 5923 5923 5924 5924 5924 5925 5925 5924 5921 5922 5921 5919 5914 5911 5909 5908 5908 5908 5906 5904 5901 5900 5899 5899 5896 5893 5892 5892 5890 5889 5887 5884 5884 5882 5880
5907 5907 5910 5913 5918 5919 5920 5919 5919 5920 5921 5921 5922 5922 5922 5922 5922 5919 5917 5919 5916 5912 5910 5905 5905 5905 5906 5903 5903 5900 5901 5901 5899 5900 5896 5894 5893 5890 5889 5887 5885 5885 5883 5883
5906 5902 5906 5911 5918 5916 5917 5916 5916 5916 5918 5919 5920 5920 5919 5919 5919 5918 5912 5913 5910 5907 5903 5900 5902 5903 5902 5901 5897 5896 5898 5898 5895 5897 5895 5893 5892 5891 5891 5889 5887 5884 5883 5881
5898 5898 5901 5909 5909 5912 5912 5913 5914 5915 5918 5918 5919 5919 5918 5917 5917 5914 5912 5912 5906 5905 5891 5891 5899 5902 5901 5898 5893 5893 5895 5896 5895 5894 5893 5893 5892 5890 5886 5885 5884 5882 5880 5878
5893 5894 5898 5903 5908 5910 5909 5911 5912 5914 5916 5917 5917 5916 5914 5914 5914 5912 5910 5909 5906 5901 5899 5900 5902 5899 5897 5894 5890 5889 5889 5889 5890 5890 5890 5892 5890 5888 5884 5881 5879 5877 5876 5873
5885 5888 5894 5900 5904 5906 5905 5907 5907 5910 5913 5913 5912 5911 5911 5910 5910 5910 5907 5903 5899 5899 5897 5901 5898 5886 5887 5885 5881 5877 5878 5878 5879 5886 5887 5888 5887 5885 5882 5879 5875 5873 5872 5869
5881 5885 5889 5894 5898 5899 5902 5903 5906 5907 5908 5908 5908 5910 5909 5910 5909 5907 5907 5903 5901 5898 5894 5891 5893 5889 5883 5876 5875 5869 5866 5852 5860 5881 5884 5883 5882 5880 5877 5874 5870 5868 5864 5863
5876 5880 5883 5888 5891 5896 5898 5900 5902 5903 5904 5904 5905 5905 5907 5908 5907 5906 5907 5904 5900 5897 5887 5878 5884 5888 5881 5875 5872 5868 5876 5876 5874 5874 5876 5877 5878 5875 5871 5869 5864 5860 5857 5855
5869 5873 5877 5881 5885 5893 5893 5894 5898 5899 5900 5900 5901 5903 5905 5904 5905 5906 5905 5900 5898 5895 5891 5886 5883 5882 5881 5880 5878 5878 5880 5877 5872 5873 5873 5876 5874 5870 5866 5862 5857 5853 5850 5847
5865 5868 5869 5874 5881 5885 5887 5890 5892 5893 5897 5897 5898 5899 5901 5902 5902 5903 5901 5895 5895 5893 5893 5889 5886 5882 5882 5880 5877 5877 5875 5870 5868 5870 5871 5870 5867 5863 5860 5854 5849 5846 5843 5840
5858 5860 5865 5869 5876 5880 5883 5885 5888 5891 5889 5891 5893 5895 5897 5899 5900 5900 5899 5894 5892 5891 5890 5889 5887 5884 5880 5876 5872 5869 5866 5863 5864 5865 5864 5862 5860 5856 5850 5844 5840 5837 5835 5833
5851 5855 5860 5865 5873 5877 5877 5881 5884 5886 5887 5888 5891 5891 5891 5894 5895 5894 5893 5891 5891 5887 5884 5882 5883 5881 5876 5868 5862 5859 5859 5861 5861 5860 5859 5856 5851 5843 5837 5834 5831 5829 5826 5823
5846 5849 5856 5863 5868 5871 5873 5876 5879 5880 5883 5884 5888 5888 5887 5890 5892 5892 5892 5890 5887 5884 5880 5879 5876 5874 5870 5867 5865 5864 5862 5859 5856 5853 5848 5842 5836 5834 5830 5827 5825 5822 5818 5815
5842 5846 5851 5858 5862 5865 5867 5870 5871 5875 5877 5880 5883 5884 5881 5884 5887 5887 5887 5886 5885 5883 5879 5876 5872 5868 5863 5860 5858 5855 5852 5848 5845 5843 5838 5835 5832 5827 5823 5822 5817 5813 5809 5806
5839 5843 5848 5852 5857 5859 5862 5864 5867 5872 5873 5877 5879 5880 5880 5880 5884 5885 5884 5882 5880 5880 5877 5874 5869 5863 5860 5858 5854 5852 5849 5845 5842 5839 5833 5827 5824 5821 5818 5813 5808 5805 5801 5798
5836 5839 5845 5848 5851 5852 5855 5859 5864 5867 5869 5872 5874 5875 5878 5880 5881 5880 5878 5875 5873 5871 5869 5867 5864 5862 5859 5855 5851 5849 5844 5838 5833 5828 5824 5822 5819 5814 5809 5804 5800 5796 5792 5788
5833 5836 5839 5841 5844 5847 5849 5856 5859 5862 5864 5867 5870 5872 5875 5877 5876 5876 5873 5871 5869 5867 5864 5862 5858 5855 5852 5849 5845 5840 5836 5832 5827 5823 5819 5815 5810 5805 5801 5797 5792 5788 5784 5780
5830 5833 5836 5837 5839 5840 5845 5851 5854 5856 5857 5864 5866 5868 5870 5871 5870 5869 5867 5865 5864 5863 5861 5857 5853 5849 5847 5844 5839 5834 5828 5824 5819 5815 5810 5805 5802 5797 5792 5787 5783 5779 5775 5771
5823 5827 5830 5832 5834 5836 5841 5847 5849 5852 5861 5862 5862 5863 5863 5864 5863 5860 5859 5859 5858 5856 5853 5849 5845 5842 5837 5833 5828 5825 5820 5815 5811 5807 5802 5798 5793 5788 5783 5779 5774 5770 5766 5762
5817 5821 5825 5826 5828 5831 5838 5843 5847 5850 5851 5858 5859 5860 5861 5859 5857 5855 5853 5851 5848 5846 5843 5840 5836 5833 5829 5824 5820 5815 5811 5808 5804 5799 5795 5790 5785 5780 5775 5771 5767 5762 5758 5752
5813 5816 5820 5821 5824 5829 5837 5844 5844 5846 5849 5852 5853 5855 5853 5852 5851 5849 5846 5844 5842 5840 5836 5832 5829 5825 5820 5815 5811 5809 5805 5802 5797 5792 5788 5783 5778 5773 5769 5764 5759 5754 5749 5743
5806 5810 5814 5817 5821 5824 5831 5837 5840 5843 5844 5844 5845 5846 5847 5845 5843 5842 5841 5838 5836 5831 5827 5825 5823 5819 5814 5810 5806 5803 5800 5795 5790 5784 5780 5775 5771 5767 5762 5756 5750 5745 5738 5732
5802 5806 5808 5812 5816 5821 5825 5831 5834 5836 5837 5839 5840 5840 5839 5838 5838 5836 5833 5830 5826 5824 5821 5819 5816 5812 5808 5804 5801 5797 5792 5787 5782 5777 5772 5768 5763 5759 5753 5747 5741 5735 5728 5722
5797 5801 5803 5807 5813 5816 5821 5826 5827 5829 5831 5832 5833 5833 5834 5834 5831 5827 5824 5823 5822 5820 5818 5813 5808 5804 5802 5798 5795 5791 5785 5781 5776 5771 5766 5762 5757 5752 5746 5740 5733 5727 5720 5713